Zurück zum Katalog

STARLINK-36803

AktivKommunikationSSO
NORAD 67893·PAYLOAD·🇺🇸 United States

Gestartet Feb 21, 2026 von Vandenberg Space Force Base

Loading…

Nächste Überflüge (nächste 24 Stunden)

TLE

AktuellSource: CelesTrak SupGP

Epoche: Sep 15, 2026, 02:50 UTC

1 67893C 26035Q   26258.11854167  .00069500  00000+0  21579-2 0  2588
2 67893  97.2849 190.0922 0001986  97.4002 185.1897 15.33396802    13

Verfolge STARLINK-36803 in Echtzeit mit AllMySat

Download on the App Store